[[{"header":{"parameterUnit":"m.s-1","parameterCategory":1,"la1":30.2991,"la2":30.254,"lo1":-89.0895,"lo2":-89.0444,"dy":0.0017,"dx":0.0017,"nx":28,"ny":28,"refTime":"2023-10-27T21:00:00:Z","depth":0,"parameterNumber":2,"parameterNumberName":"U-component_of_WINDS"},"data":[0,0,0,0,0,0,0,0,0,0,0,0,0,0,0,0,0,0,0,0,0,0,0,0,0,0,0,0,0,0,0,0,0,0,0,0,0,0,0,0,0,0,0,0,0,0,0,0,0,0,0,0,0,0,0,0,0,0,-3.6363,-3.6362,0,-3.633,-3.6329,-3.6329,-3.6242,-3.624,-3.6238,-3.6236,-3.6203,-3.6204,-3.6205,0,0,0,0,0,0,0,0,0,0,0,0,0,-3.6352,-3.6353,-3.6363,-3.6362,-3.6362,-3.633,-3.6329,-3.6329,-3.6242,-3.624,-3.6238,-3.6236,-3.6203,-3.6204,-3.6205,0,0,0,0,0,0,0,0,0,0,0,0,0,-3.6342,-3.6353,-3.6363,-3.6315,-3.631,-3.633,-3.6329,-3.6329,-3.6243,-3.624,-3.6237,-3.6235,-3.6203,-3.6204,-3.6205,-3.6269,0,0,-3.6209,-3.621,0,0,0,0,0,0,0,0,-3.6343,-3.6342,-3.6322,-3.6318,-3.6313,-3.6287,-3.6313,-3.6309,-3.6243,-3.6268,-3.6236,-3.6233,-3.6233,-3.6232,-3.6232,-3.6267,-3.6266,-3.6209,-3.621,-3.621,-3.6211,0,0,0,0,0,0,0,-3.6343,-3.6343,-3.6349,-3.6322,-3.6316,-3.6295,-3.6291,-3.6312,-3.6267,-3.6266,-3.626,-3.6257,-3.623,-3.6231,-3.623,-3.6265,-3.6209,-3.621,-3.6211,-3.6211,-3.6353,-3.6356,0,0,0,0,0,0,-3.6351,-3.6344,-3.6351,-3.6348,-3.6321,-3.6298,-3.6293,-3.6298,-3.6266,-3.6259,-3.6259,-3.6253,-3.623,-3.6229,-3.6229,-3.6302,-3.621,-3.6212,-3.6212,-3.635,-3.6353,-3.6357,0,0,0,0,0,0,-3.6351,-3.6352,-3.6352,-3.6345,-3.6343,-3.6301,-3.6308,-3.6299,-3.6299,-3.6261,-3.6253,-3.6268,-3.6228,-3.6227,-3.626,-3.6299,-3.6212,-3.6213,-3.6346,-3.6351,-3.6355,-3.6448,0,0,0,0,0,0,-3.6351,-3.6353,-3.6376,-3.6346,-3.6344,-3.6383,-3.631,-3.63,-3.6302,-3.6293,-3.6267,-3.626,-3.6226,-3.6258,-3.6261,-3.63,-3.6214,-3.6342,-3.6348,-3.6354,-3.6441,-3.6455,-3.6467,0,0,0,0,0,-3.6351,-3.6403,-3.6377,-3.6379,-3.6372,-3.6385,-3.6384,-3.6343,-3.6305,-3.6329,-3.6305,-3.6261,-3.6295,-3.6262,-3.6265,-3.6304,-3.634,-3.6347,-3.6353,-3.6436,-3.6453,-3.6467,0,0,0,0,0,0,-3.6438,-3.6398,-3.6369,-3.6413,-3.6404,-3.6371,-3.6398,-3.6362,-3.6363,-3.6354,-3.6304,-3.6299,-3.6339,-3.6325,-3.6289,-3.6365,-3.631,-3.6318,-3.6372,-3.6388,-3.6401,-3.6403,-3.6215,0,0,0,0,0,-3.6463,-3.6477,-3.6441,-3.6483,-3.648,-3.6441,-3.6445,-3.6414,-3.6402,-3.6397,-3.6375,-3.6366,-3.6374,-3.638,-3.6386,-3.644,-3.6433,-3.6468,-3.6481,-3.6492,-3.6499,-3.6527,-3.6542,-3.6379,-3.6379,-3.6379,0,0,-3.6513,-3.6493,-3.6505,-3.6501,-3.6489,-3.6506,-3.6437,-3.6457,-3.6469,-3.64,-3.6429,-3.6414,-3.64,-3.6443,-3.6461,-3.6433,-3.6543,-3.6501,-3.6509,-3.651,-3.6536,-3.6551,-3.6565,-3.6383,-3.6382,-3.6382,0,0,-3.6613,-3.6599,-3.6633,-3.6624,-3.6608,-3.6582,-3.6591,-3.6564,-3.6551,-3.658,-3.6529,-3.6543,-3.6558,-3.655,-3.6548,-3.6649,-3.6609,-3.6652,-3.6719,-3.6748,-3.6761,-3.6772,-3.6808,-3.6821,-3.6659,-3.666,-3.666,0,-3.6677,-3.6699,-3.6655,-3.6679,-3.6679,-3.6619,-3.6654,-3.6647,-3.6634,-3.6636,-3.6604,-3.6623,-3.6609,-3.6651,-3.6676,-3.6676,-3.6685,-3.6654,-3.6762,-3.6773,-3.6783,-3.6817,-3.683,-3.6665,-3.6664,-3.6664,-3.6663,0,-3.678,-3.6796,-3.6826,-3.6815,-3.6819,-3.6848,-3.6809,-3.6819,-3.6789,-3.6766,-3.6798,-3.6779,-3.6781,-3.6788,-3.6759,-3.6827,-3.6809,-3.6771,-3.6715,-3.6804,-3.6835,-3.6848,-3.6673,-3.6671,-3.6669,-3.6668,0,0,-3.6931,-3.6898,-3.691,-3.6905,-3.6884,-3.6896,-3.6924,-3.6925,-3.6935,-3.6929,-3.695,-3.6966,-3.6931,-3.6929,-3.6899,-3.6924,-3.7005,-3.6882,-3.6881,-3.6906,-3.7079,-3.7108,-3.7123,-3.698,-3.6982,-3.6984,-3.708,0,-3.7025,-3.7069,-3.7032,-3.7083,-3.7098,-3.7043,-3.7067,-3.7057,-3.7038,-3.7049,-3.7027,-3.7039,-3.6992,-3.699,-3.7013,-3.6991,-3.7039,-3.6983,-3.7,-3.7001,-3.7004,-3.7139,-3.7169,-3.7261,-3.7092,-3.7094,-3.7096,0,-3.714,-3.714,-3.7193,-3.7171,-3.7176,-3.7198,-3.7198,-3.7208,-3.7197,-3.7182,-3.7181,-3.7144,-3.717,-3.7117,-3.7153,-3.7115,-3.712,-3.7111,-3.7113,-3.7112,-3.7053,-3.7142,-3.7289,-3.7303,-3.7114,-3.7113,-3.7111,0,-3.7245,-3.7258,-3.7292,-3.729,-3.7265,-3.7282,-3.7273,-3.7259,-3.7263,-3.7263,-3.7265,-3.7269,-3.727,-3.7274,-3.724,-3.7204,-3.728,-3.7224,-3.7268,-3.7269,-3.7285,-3.7285,-3.7436,-3.729,-3.729,-3.729,-3.729,0,-3.7353,-3.7388,-3.7339,-3.736,-3.7398,-3.7355,-3.7394,-3.7379,-3.7368,-3.7385,-3.7338,-3.7355,-3.7309,-3.7322,-3.7296,-3.733,-3.7331,-3.7319,-3.7312,-3.7323,-3.7325,-3.7325,-3.7317,-3.7293,-3.7293,-3.7292,-3.7291,0,-3.7476,-3.7444,-3.7478,-3.7452,-3.7447,-3.7476,-3.7455,-3.7473,-3.7452,-3.7475,-3.7477,-3.7444,-3.7457,-3.7424,-3.7431,-3.7414,-3.7463,-3.7445,-3.7467,-3.7461,-3.7507,-3.7504,-3.7663,-3.7682,-3.7525,-3.7527,-3.7528,0,-3.7546,-3.7571,-3.755,-3.7558,-3.7552,-3.7566,-3.757,-3.7531,-3.7537,-3.7528,-3.7548,-3.7558,-3.7563,-3.7587,-3.7563,-3.7569,-3.7551,-3.7607,-3.7552,-3.7563,-3.7552,-3.7551,-3.7553,-3.7618,-3.762,-3.7621,-3.7623,0,-3.7675,-3.7659,-3.7667,-3.7671,-3.7678,-3.7679,-3.7676,-3.7686,-3.7644,-3.7654,-3.7667,-3.7672,-3.7681,-3.7691,-3.7692,-3.7683,-3.7646,-3.7641,-3.7651,-3.7662,-3.7674,-3.7668,-3.7497,-3.7637,-3.7635,-3.7634,-3.7633,-3.7633,-3.7773,-3.7793,-3.7782,-3.7793,-3.7788,-3.7788,-3.7804,-3.7786,-3.7796,-3.78,-3.7777,-3.7796,-3.7786,-3.7784,-3.7779,-3.7794,-3.7768,-3.7784,-3.7787,-3.7792,-3.7799,-3.7673,-3.7794,-3.7793,-3.7793,-3.7792,-3.7792,0,-3.7899,-3.7889,-3.79,-3.7899,-3.7909,-3.7875,-3.7871,-3.7881,-3.7898,-3.7893,-3.7899,-3.7916,-3.7926,-3.7904,-3.7911,-3.7927,-3.7911,-3.793,-3.7928,-3.7927,-3.7821,-3.7811,-3.7944,-3.7944,-3.7944,-3.7944,-3.7944,-3.7944,-3.7965,-3.7999,-3.7982,-3.8013,-3.8003,-3.8022,-3.8023,-3.8023,-3.8018,-3.8038,-3.8047,-3.8033,-3.8021,-3.8028,-3.8036,-3.8029,-3.8034,-3.806,-3.8048,-3.7949,-3.7934,-3.792,-3.791,-3.8061,-3.8062,-3.8152,-3.8153,-3.8153]},{"header":{"parameterUnit":"m.s-1","parameterCategory":1,"la1":30.2991,"la2":30.254,"lo1":-89.0895,"lo2":-89.0444,"dy":0.0017,"dx":0.0017,"nx":28,"ny":28,"refTime":"2023-10-27T21:00:00:Z","depth":0,"parameterNumber":3,"parameterNumberName":"V-component_of_WINDS"},"data":[0,0,0,0,0,0,0,0,0,0,0,0,0,0,0,0,0,0,0,0,0,0,0,0,0,0,0,0,0,0,0,0,0,0,0,0,0,0,0,0,0,0,0,0,0,0,0,0,0,0,0,0,0,0,0,0,0,0,1.3168,1.3168,0,1.313,1.313,1.3129,1.3214,1.3217,1.3219,1.3222,1.3177,1.3173,1.3169,0,0,0,0,0,0,0,0,0,0,0,0,0,1.3311,1.3307,1.3169,1.3168,1.3168,1.313,1.313,1.3129,1.3213,1.3217,1.322,1.3223,1.3178,1.3174,1.3169,0,0,0,0,0,0,0,0,0,0,0,0,0,1.3258,1.3306,1.3169,1.3205,1.3208,1.313,1.313,1.3129,1.3213,1.3217,1.3221,1.3225,1.3179,1.3174,1.3168,1.3052,0,0,1.3151,1.3149,0,0,0,0,0,0,0,0,1.3261,1.3253,1.32,1.3203,1.3206,1.3181,1.3163,1.3103,1.3212,1.3211,1.3222,1.3227,1.3174,1.317,1.3153,1.305,1.3048,1.3151,1.3147,1.3145,1.3143,0,0,0,0,0,0,0,1.3264,1.3255,1.3153,1.3199,1.3203,1.3222,1.3219,1.3152,1.317,1.3211,1.3217,1.3212,1.3177,1.3158,1.3153,1.3047,1.3151,1.3146,1.3143,1.314,1.2847,1.2843,0,0,0,0,0,0,1.3264,1.3257,1.3154,1.3152,1.3244,1.3216,1.3213,1.3185,1.3171,1.3173,1.3208,1.3216,1.3166,1.3159,1.3151,1.3015,1.3145,1.314,1.3137,1.2852,1.2846,1.2841,0,0,0,0,0,0,1.3267,1.3254,1.3156,1.3206,1.3195,1.321,1.3177,1.3182,1.3164,1.3169,1.3172,1.3187,1.3169,1.3159,1.3077,1.3014,1.3137,1.3132,1.2857,1.285,1.2844,1.274,0,0,0,0,0,0,1.327,1.3255,1.3211,1.3205,1.3192,1.3083,1.3173,1.3178,1.3154,1.3164,1.3149,1.3151,1.3171,1.3085,1.3071,1.3009,1.3128,1.2862,1.2854,1.2846,1.2749,1.2731,1.2715,0,0,0,0,0,1.3275,1.3182,1.3208,1.3196,1.3139,1.3079,1.3072,1.3099,1.3149,1.3105,1.3109,1.3151,1.3024,1.3075,1.3061,1.2996,1.2866,1.2856,1.2847,1.2757,1.2734,1.2715,0,0,0,0,0,0,1.3178,1.3182,1.3211,1.3113,1.3095,1.3093,1.3039,1.3074,1.304,1.305,1.3084,1.308,1.2991,1.2985,1.3043,1.2883,1.2953,1.294,1.289,1.2869,1.2852,1.2855,1.3123,0,0,0,0,0,1.3145,1.3098,1.3103,1.3016,1.3006,1.3024,1.2999,1.3022,1.3004,1.2996,1.2994,1.2973,1.2929,1.2898,1.2858,1.2749,1.2747,1.2697,1.268,1.2666,1.2654,1.2597,1.2575,1.2809,1.2809,1.2809,0,0,1.3077,1.3073,1.3041,1.2997,1.2986,1.2935,1.3017,1.2959,1.2921,1.2987,1.2909,1.2907,1.2886,1.279,1.2748,1.2783,1.2589,1.2654,1.2642,1.2638,1.2585,1.2562,1.2543,1.2802,1.2803,1.2804,0,0,1.2927,1.2919,1.2846,1.2834,1.2818,1.283,1.2813,1.2806,1.2807,1.2731,1.2779,1.2734,1.2656,1.264,1.2622,1.2468,1.2505,1.2453,1.2364,1.2308,1.2289,1.2273,1.2218,1.2198,1.2441,1.2441,1.2441,0,1.2843,1.277,1.2804,1.2744,1.2723,1.2782,1.2709,1.2695,1.2664,1.2648,1.2688,1.2594,1.2584,1.2486,1.2448,1.2431,1.2412,1.2455,1.229,1.2274,1.2259,1.2207,1.2187,1.2435,1.2435,1.2436,1.2437,0,1.2669,1.2617,1.256,1.2533,1.2505,1.2438,1.2461,1.2429,1.2455,1.2463,1.2384,1.2375,1.2334,1.2313,1.2336,1.2218,1.224,1.2284,1.2356,1.223,1.2182,1.2162,1.2426,1.2428,1.243,1.2431,0,0,1.2454,1.2448,1.2426,1.2415,1.2402,1.2362,1.2298,1.226,1.2233,1.221,1.2157,1.2091,1.2132,1.2111,1.2134,1.2084,1.1964,1.2135,1.2135,1.2104,1.1833,1.18,1.1777,1.1989,1.1986,1.1983,1.1835,0,1.2306,1.2198,1.2228,1.2119,1.2073,1.2129,1.2073,1.2058,1.2064,1.2025,1.2031,1.1984,1.2042,1.203,1.1984,1.1988,1.191,1.1999,1.1939,1.1937,1.1943,1.1752,1.1716,1.1577,1.1817,1.1813,1.1811,0,1.2119,1.2092,1.1979,1.1975,1.1957,1.1906,1.1875,1.1836,1.1821,1.1829,1.1806,1.1839,1.1775,1.1847,1.1759,1.182,1.1797,1.1795,1.1791,1.1786,1.1866,1.1742,1.1534,1.1513,1.1782,1.1784,1.1786,0,1.1974,1.1909,1.1835,1.1823,1.1816,1.178,1.1775,1.1763,1.1739,1.1711,1.1696,1.166,1.164,1.1611,1.1633,1.1683,1.1541,1.1615,1.1545,1.1545,1.1512,1.1514,1.1298,1.1497,1.1498,1.1498,1.1499,0,1.1806,1.1735,1.177,1.1723,1.1646,1.168,1.1602,1.1603,1.1593,1.1547,1.1593,1.1549,1.158,1.1538,1.1555,1.148,1.147,1.1474,1.1479,1.147,1.147,1.1456,1.1466,1.1493,1.1494,1.1495,1.1496,0,1.1631,1.1652,1.1574,1.1575,1.1574,1.1516,1.1517,1.1473,1.1484,1.1425,1.1413,1.1429,1.1382,1.1402,1.1351,1.1362,1.1267,1.1284,1.1272,1.1277,1.1207,1.1213,1.0974,1.0944,1.1162,1.116,1.1158,0,1.1522,1.147,1.1466,1.144,1.1432,1.1389,1.1366,1.1397,1.1371,1.135,1.1309,1.1267,1.1235,1.1157,1.1163,1.1125,1.1143,1.1062,1.1137,1.113,1.1142,1.1145,1.114,1.1046,1.1044,1.1041,1.104,0,1.1327,1.1341,1.1306,1.1275,1.1246,1.1223,1.1203,1.1179,1.121,1.1177,1.1131,1.1107,1.1057,1.1015,1.0981,1.0975,1.1012,1.1016,1.0998,1.0988,1.0984,1.0986,1.1231,1.1021,1.1023,1.1025,1.1026,1.1026,1.1183,1.1139,1.113,1.109,1.1079,1.106,1.102,1.1027,1.099,1.0954,1.0974,1.092,1.0907,1.0867,1.0856,1.0814,1.0845,1.0819,1.0812,1.0805,1.0796,1.0991,1.0807,1.0808,1.0809,1.0809,1.0809,0,1.099,1.0988,1.0951,1.0924,1.0892,1.0932,1.0913,1.0884,1.0837,1.0822,1.0791,1.0738,1.0698,1.0701,1.0664,1.0629,1.0645,1.0618,1.0621,1.0619,1.077,1.079,1.0606,1.0606,1.0606,1.0606,1.0606,1.0606,1.0887,1.0816,1.0828,1.0752,1.0749,1.0699,1.0685,1.0667,1.0656,1.0596,1.0564,1.0567,1.056,1.0523,1.0487,1.0489,1.0473,1.044,1.0448,1.0588,1.0608,1.0628,1.0646,1.0436,1.0436,1.0301,1.03,1.0299]}]]